Date String (YYYY-MM-DD hh:mm:ss) UTC,Instrument flags,absolute air pressure of the measurement (hPa),sample flow rate (lpm),inlet stack bypass flow (lpm),air temperature of the measurement (°C),ambient temperature measured by the external sensor (°C),aerosol sample conditioner tube jacket temperature (°C),OPC LED temperature (°C),internal box temperature (°C),relative humidity of the measurement (%),span deviation,mass concentration of particles derived from Lorenz-Mie calculation of OPC scattering (μg/m³),mass concentration of particles derived from Lorenz-Mie calculation of OPC scattering (μg/m³),mass concentration of particles derived from Lorenz-Mie calculation of OPC scattering (μg/m³)
DateTimeUTC,F1_M11,P_M11,Q1_M11,Q2_M11,T1_M11,T2_M11,T3_M11,T4_M11,T5_M11,U1_M11,ZSPAN_M11,X2_M11,X0_M11,X1_M11
2023-06-06 20:00:00,SystemResetWarning,0831.0,5.00,000.00,029.7,027.4,000.0,038.2,030.9,31.1,0001.8,0012.70,0016.10,0012.21
2023-06-06 20:01:00,SystemResetWarning,0831.0,5.01,000.00,029.7,027.6,000.0,038.2,030.9,31.2,0001.6,0012.62,0016.23,0012.10
2023-06-06 20:02:00,SystemResetWarning,0831.0,4.98,000.00,029.7,027.8,000.0,038.2,031.0,31.5,0001.3,0012.44,0016.77,0011.93
2023-06-06 20:03:00,SystemResetWarning,0831.0,5.01,000.00,029.7,027.9,000.0,038.2,031.0,31.0,0001.3,0012.32,0017.36,0011.80
2023-06-06 20:04:00,SystemResetWarning,0831.1,5.01,000.00,029.7,028.0,000.0,038.2,031.1,30.1,0001.4,0012.17,0017.17,0011.67
2023-06-06 20:05:00,SystemResetWarning,0831.1,5.00,000.00,029.7,028.0,000.0,038.2,031.1,30.9,0001.3,0011.92,0016.86,0011.43
2023-06-06 20:06:00,SystemResetWarning,0831.1,5.00,000.00,029.8,028.1,000.0,038.2,031.1,31.1,0001.1,0011.74,0016.75,0011.23
2023-06-06 20:07:00,SystemResetWarning,0831.1,4.99,000.00,029.8,026.8,000.0,038.2,031.1,31.2,0000.8,0011.66,0016.81,0011.15
2023-06-06 20:08:00,SystemResetWarning,0831.2,5.00,000.00,029.8,025.4,000.0,038.1,031.1,30.7,0000.6,0011.56,0016.85,0011.03
2023-06-06 20:09:00,SystemResetWarning,0831.1,5.01,000.00,029.7,025.2,000.0,038.1,030.9,30.6,0000.7,0011.39,0016.86,0010.85
2023-06-06 20:10:00,SystemResetWarning,0831.1,5.00,000.00,029.6,025.5,000.0,038.1,030.7,30.0,0000.4,0011.24,0017.11,0010.67
2023-06-06 20:11:00,SystemResetWarning,0831.1,5.00,000.00,029.6,025.9,000.0,038.1,030.7,30.5,0000.3,0011.00,0017.43,0010.43
2023-06-06 20:12:00,SystemResetWarning,0831.1,5.00,000.00,029.5,026.3,000.0,038.1,030.7,29.9,0000.3,0010.72,0017.29,0010.17
2023-06-06 20:13:00,SystemResetWarning,0831.1,5.00,000.00,029.5,026.6,000.0,038.1,030.7,30.2,0000.5,0010.60,0016.48,0010.03
2023-06-06 20:14:00,SystemResetWarning,0831.1,5.00,000.00,029.5,026.9,000.0,038.1,030.8,30.5,0000.7,0010.52,0015.79,0009.95
2023-06-06 20:15:00,SystemResetWarning,0831.1,4.99,000.00,029.5,027.2,000.0,038.1,030.8,30.0,0000.8,0010.43,0015.72,0009.88
2023-06-06 20:16:00,SystemResetWarning,0831.1,5.00,000.00,029.5,027.4,000.0,038.1,030.9,29.8,0000.7,0010.38,0015.62,0009.86
2023-06-06 20:17:00,SystemResetWarning,0831.1,5.00,000.00,029.6,027.6,000.0,038.1,030.9,29.9,0001.0,0010.29,0015.50,0009.78
2023-06-06 20:18:00,SystemResetWarning,0831.1,5.00,000.00,029.6,027.8,000.0,038.1,031.0,29.6,0001.0,0010.08,0015.20,0009.59
2023-06-06 20:19:00,SystemResetWarning,0831.1,5.00,000.00,029.6,027.9,000.0,038.1,031.0,28.9,0001.3,0009.91,0015.11,0009.42
2023-06-06 20:20:00,SystemResetWarning,0831.1,4.99,000.00,029.6,028.1,000.0,038.1,031.1,30.2,0001.3,0009.75,0014.94,0009.25
2023-06-06 20:21:00,SystemResetWarning,0831.1,5.00,000.00,029.7,028.1,000.0,038.1,031.1,31.4,0001.4,0009.56,0014.38,0009.11
2023-06-06 20:22:00,SystemResetWarning,0831.1,4.99,000.00,029.7,026.7,000.0,038.1,031.1,30.6,0001.3,0009.47,0013.85,0009.00
2023-06-06 20:23:00,SystemResetWarning,0831.0,5.00,000.00,029.7,025.4,000.0,038.0,031.1,29.5,0001.1,0009.37,0013.48,0008.88
2023-06-06 20:24:00,SystemResetWarning,0831.0,5.00,000.00,029.6,025.3,000.0,038.0,030.9,31.1,0001.2,0009.21,0013.30,0008.74
2023-06-06 20:25:00,SystemResetWarning,0830.9,5.01,000.00,029.5,025.6,000.0,038.0,030.7,31.0,0001.0,0009.10,0013.01,0008.62
2023-06-06 20:26:00,SystemResetWarning,0830.9,5.00,000.00,029.5,026.0,000.0,038.0,030.7,31.1,0000.6,0009.03,0013.13,0008.55
2023-06-06 20:27:00,SystemResetWarning,0830.9,5.00,000.00,029.4,026.4,000.0,038.0,030.7,32.0,0000.6,0008.89,0013.75,0008.42
2023-06-06 20:28:00,SystemResetWarning,0830.9,5.00,000.00,029.4,026.7,000.0,038.0,030.8,32.3,0000.7,0008.77,0013.59,0008.31
2023-06-06 20:29:00,SystemResetWarning,0830.9,5.00,000.00,029.4,027.0,000.0,038.0,030.8,32.3,0000.9,0008.70,0013.52,0008.24
2023-06-06 20:30:00,SystemResetWarning,0830.9,5.00,000.00,029.5,027.3,000.0,038.0,030.9,31.4,0000.7,0008.61,0013.26,0008.16
2023-06-06 20:31:00,SystemResetWarning,0831.0,4.99,000.00,029.5,027.5,000.0,038.0,030.9,31.0,0000.3,0008.54,0012.99,0008.10
2023-06-06 20:32:00,SystemResetWarning,0831.0,5.00,000.00,029.5,027.7,000.0,038.0,030.9,30.1,0000.5,0008.48,0012.98,0008.03
2023-06-06 20:33:00,SystemResetWarning,0831.0,5.01,000.00,029.5,027.8,000.0,038.0,031.0,30.0,0000.9,0008.31,0012.73,0007.89
2023-06-06 20:34:00,SystemResetWarning,0831.0,5.00,000.00,029.5,027.9,000.0,038.0,031.0,30.5,0001.4,0008.14,0012.46,0007.75
2023-06-06 20:35:00,SystemResetWarning,0831.1,5.00,000.00,029.6,028.0,000.0,038.0,031.0,29.3,0001.5,0008.02,0012.39,0007.61
2023-06-06 20:36:00,SystemResetWarning,0831.1,4.99,000.00,029.6,028.0,000.0,038.1,031.1,28.9,0001.5,0007.90,0012.38,0007.48
2023-06-06 20:37:00,SystemResetWarning,0831.0,4.98,000.00,029.6,026.5,000.0,038.0,031.1,28.3,0001.9,0007.71,0011.96,0007.29
2023-06-06 20:38:00,SystemResetWarning,0830.9,5.00,000.00,029.6,025.4,000.0,038.0,031.1,27.6,0002.1,0007.55,0011.10,0007.13
2023-06-06 20:39:00,SystemResetWarning,0830.9,5.02,000.00,029.5,025.4,000.0,037.9,030.9,27.5,0002.1,0007.40,0010.73,0006.99
2023-06-06 20:40:00,SystemResetWarning,0830.9,5.00,000.00,029.5,025.7,000.0,038.0,030.7,28.4,0002.3,0007.24,0010.48,0006.84
2023-06-06 20:41:00,SystemResetWarning,0830.9,5.00,000.00,029.4,026.1,000.0,037.9,030.7,27.8,0002.2,0007.12,0010.38,0006.72
2023-06-06 20:42:00,SystemResetWarning,0830.9,5.00,000.00,029.4,026.4,000.0,037.9,030.7,28.5,0002.4,0006.96,0010.18,0006.58
2023-06-06 20:43:00,SystemResetWarning,0830.9,5.01,000.00,029.4,026.8,000.0,037.9,030.8,30.6,0002.4,0006.81,0010.39,0006.45
2023-06-06 20:44:00,SystemResetWarning,0830.9,4.99,000.00,029.4,027.1,000.0,037.9,030.8,30.3,0001.9,0006.74,0010.87,0006.36
2023-06-06 20:45:00,SystemResetWarning,0830.9,4.99,000.00,029.4,027.4,000.0,038.0,030.9,28.6,0001.7,0006.69,0010.88,0006.30
2023-06-06 20:46:00,SystemResetWarning,0830.9,4.99,000.00,029.5,027.6,000.0,038.0,030.9,28.8,0001.7,0006.65,0011.01,0006.28
2023-06-06 20:47:00,SystemResetWarning,0830.9,5.00,000.00,029.5,027.8,000.0,038.0,031.0,28.3,0001.8,0006.60,0011.05,0006.23
2023-06-06 20:48:00,SystemResetWarning,0831.0,5.00,000.00,029.5,028.0,000.0,038.0,031.0,29.5,0001.6,0006.58,0011.07,0006.20
2023-06-06 20:49:00,SystemResetWarning,0831.0,5.01,000.00,029.6,028.1,000.0,038.0,031.1,29.0,0001.5,0006.60,0011.29,0006.22
2023-06-06 20:50:00,SystemResetWarning,0831.0,4.99,000.00,029.6,027.2,000.0,038.0,031.1,28.9,0001.5,0006.75,0011.51,0006.36
2023-06-06 20:51:00,SystemResetWarning,0830.9,5.00,000.00,029.6,025.2,000.0,037.9,031.0,29.6,0001.4,0006.84,0011.80,0006.46
2023-06-06 20:52:00,SystemResetWarning,0830.9,5.01,000.00,029.5,024.3,000.0,037.9,030.9,29.9,0001.6,0006.94,0011.93,0006.53
2023-06-06 20:53:00,SystemResetWarning,0830.9,5.01,000.00,029.4,024.5,000.0,037.9,030.7,29.6,0001.8,0007.04,0012.06,0006.60
2023-06-06 20:54:00,SystemResetWarning,0830.9,5.00,000.00,029.3,024.9,000.0,037.9,030.5,30.2,0001.6,0007.14,0011.91,0006.70
2023-06-06 20:55:00,SystemResetWarning,0830.9,5.00,000.00,029.3,025.4,000.0,037.8,030.6,30.6,0001.6,0007.32,0011.53,0006.86
2023-06-06 20:56:00,SystemResetWarning,0830.9,5.00,000.00,029.2,025.9,000.0,037.8,030.6,30.2,0001.7,0007.52,0012.09,0007.05
2023-06-06 20:57:00,SystemResetWarning,0830.9,5.00,000.00,029.2,026.3,000.0,037.8,030.7,30.5,0001.6,0007.70,0012.59,0007.22
2023-06-06 20:58:00,SystemResetWarning,0830.9,5.00,000.00,029.2,026.7,000.0,037.8,030.7,30.6,0001.5,0007.83,0012.49,0007.34
2023-06-06 20:59:00,SystemResetWarning,0830.9,5.00,000.00,029.3,027.0,000.0,037.8,030.7,31.6,0001.5,0007.95,0012.62,0007.46
